Cross City, FL

9:10 PM EDT on October 16, 2019 (GMT -0400)
Cross City

Weather History for KCTY - July, 2019

Change the Weather History Date:

Sunday, July 21, 2019

  Actual Average Record
Temperature  
Mean Temperature 80 °F 82 °F  
Max Temperature 90 °F 91 °F 96 °F (2005)
Min Temperature 69 °F 72 °F 69 °F (2012)
Degree Days  
Heating Degree Days 0    
Month to date heating degree days 0  
Since 1 June heating degree days 0  
Since 1 July heating degree days 0  
Cooling Degree Days 15    
Month to date cooling degree days 379  
Year to date cooling degree days 1555  
Since 1 June cooling degree days 871  
Growing Degree Days 29 (Base 50)    
Moisture  
Dew Point 72 °F    
Average Humidity 88    
Maximum Humidity 100    
Minimum Humidity 57    
Precipitation  
Precipitation 0.07 in 0.19 in 1.18 in (2000)
Month to date precipitation 3.12 3.64  
Year to date precipitation 31.77 25.90  
Sea Level Pressure  
Sea Level Pressure 30.07 in    
Wind  
Wind Speed 3 mph (ESE)    
Max Wind Speed 14 mph    
Max Gust Speed 25 mph    
Visibility 9 miles    
Events Rain , Thunderstorm    
T = Trace of Precipitation, MM = Missing Value Source: NWS Daily Summary

Daily Weather History Graph

Daily Weather History Graph

Search for Another Location

Airport or City:

Astronomy

Jul. 21, 2019 Rise Set
Actual Time 6:45 AM EDT 8:31 PM EDT
Civil Twilight 6:19 AM EDT 8:58 PM EDT
Nautical Twilight 5:47 AM EDT 9:30 PM EDT
Astronomical Twilight 5:13 AM EDT 10:03 PM EDT
Moon 11:44 PM EDT (7/21) 10:49 AM EDT (7/21)
Length of Visible Light 14h 39m
Length of Day
13h 46m
Waning Gibbous, 80% of the Moon is Illuminated
Jul 21
Waning Gibbous
Jul 24
Last Quarter
Jul 31
New
Aug 7
First Quarter
Aug 15
Full

Hourly Weather History & Observations

Time (EDT) Temp. Heat Index Dew Point Humidity Pressure Visibility Wind Dir Wind Speed Gust Speed Precip Events Conditions
12:15 AM 74.5 °F - 73.2 °F 96% 30.06 in 10.0 mi Calm Calm - N/A   Clear
12:35 AM 75.2 °F - 73.4 °F 94% 30.07 in 10.0 mi SE 4.6 mph - N/A   Clear
12:55 AM 74.8 °F - 73.6 °F 96% 30.07 in 10.0 mi East 3.5 mph - N/A   Clear
1:15 AM 75.0 °F - 73.9 °F 96% 30.08 in 10.0 mi SSE 3.5 mph - N/A   Clear
1:35 AM 75.2 °F - 73.9 °F 96% 30.07 in 10.0 mi Calm Calm - N/A   Clear
1:55 AM 74.8 °F - 73.6 °F 96% 30.07 in 10.0 mi Calm Calm - N/A   Clear
2:15 AM 74.7 °F - 73.8 °F 97% 30.06 in 10.0 mi NE 4.6 mph - N/A   Clear
2:35 AM 74.3 °F - 73.4 °F 97% 30.05 in 10.0 mi SSE 4.6 mph - N/A   Clear
2:55 AM 74.1 °F - 73.0 °F 96% 30.05 in 10.0 mi NE 5.8 mph - N/A   Clear
3:15 AM 73.4 °F - 73.4 °F 100% 30.05 in 10.0 mi Calm Calm - N/A   Clear
3:35 AM 73.0 °F - 72.1 °F 97% 30.05 in 10.0 mi Calm Calm - N/A   Clear
3:55 AM 73.0 °F - 72.3 °F 98% 30.05 in 10.0 mi East 3.5 mph - N/A   Clear
4:15 AM 73.4 °F - 73.4 °F 100% 30.04 in 7.0 mi Calm Calm - N/A   Clear
4:35 AM 73.0 °F - 72.5 °F 98% 30.04 in 7.0 mi East 3.5 mph - N/A   Clear
4:55 AM 73.0 °F - 72.5 °F 98% 30.04 in 7.0 mi Calm Calm - N/A   Clear
5:15 AM 72.9 °F - 72.3 °F 98% 30.04 in 7.0 mi Calm Calm - N/A   Clear
5:35 AM 72.9 °F - 72.3 °F 98% 30.04 in 7.0 mi Calm Calm - N/A   Clear
5:55 AM 72.5 °F - 72.1 °F 99% 30.05 in 7.0 mi Calm Calm - N/A   Clear
6:15 AM 72.0 °F - 71.2 °F 98% 30.05 in 10.0 mi Calm Calm - N/A   Clear
6:35 AM 71.8 °F - 71.1 °F 98% 30.06 in 7.0 mi Calm Calm - N/A   Clear
6:55 AM 71.1 °F - 70.5 °F 98% 30.06 in 10.0 mi Calm Calm - N/A   Clear
7:15 AM 72.3 °F - 71.8 °F 98% 30.07 in 7.0 mi Calm Calm - N/A   Clear
7:35 AM 73.2 °F - 72.7 °F 98% 30.07 in 10.0 mi Calm Calm - N/A   Clear
7:55 AM 74.8 °F - 73.2 °F 95% 30.07 in 10.0 mi Calm Calm - N/A   Clear
8:15 AM 76.5 °F - 73.0 °F 89% 30.08 in 10.0 mi ESE 4.6 mph - N/A   Clear
8:35 AM 77.9 °F - 73.2 °F 85% 30.08 in - Calm Calm - N/A   Clear
8:55 AM 79.0 °F - 73.9 °F 84% 30.08 in 7.0 mi East 3.5 mph - N/A   Clear
9:15 AM 80.4 °F 85.5 °F 74.3 °F 82% 30.09 in 10.0 mi South 3.5 mph - N/A   Clear
9:35 AM 82.4 °F 89.5 °F 75.2 °F 79% 30.09 in 10.0 mi Calm Calm - N/A   Clear
9:55 AM 82.9 °F 89.9 °F 74.8 °F 76% 30.09 in 10.0 mi Calm Calm - N/A   Clear
10:15 AM 84.2 °F 92.6 °F 75.6 °F 75% 30.09 in 10.0 mi SSE 5.8 mph - N/A   Clear
10:35 AM 83.1 °F 90.4 °F 74.8 °F 76% 30.09 in 10.0 mi Calm Calm - N/A   Clear
10:55 AM 86.0 °F 95.5 °F 75.7 °F 71% 30.09 in 7.0 mi ENE 3.5 mph - N/A   Scattered Clouds
11:15 AM 87.8 °F 97.6 °F 75.2 °F 66% 30.09 in 10.0 mi North 3.5 mph - N/A   Mostly Cloudy
11:35 AM 86.0 °F 94.2 °F 74.5 °F 68% 30.08 in 10.0 mi North 3.5 mph - N/A   Mostly Cloudy
11:55 AM 87.1 °F 94.9 °F 73.6 °F 64% 30.07 in 10.0 mi WSW 4.6 mph - N/A   Scattered Clouds
12:15 PM 89.1 °F 98.5 °F 74.5 °F 62% 30.07 in 10.0 mi SSE 4.6 mph - N/A Thunderstorm Scattered Clouds
12:35 PM 90.0 °F 99.6 °F 74.3 °F 60% 30.08 in 10.0 mi West 3.5 mph - N/A Thunderstorm Scattered Clouds
12:55 PM 86.0 °F 95.5 °F 75.7 °F 71% 30.08 in 10.0 mi West 9.2 mph - N/A Thunderstorm Thunderstorm
1:15 PM 83.5 °F 91.2 °F 75.4 °F 76% 30.09 in 10.0 mi West 10.4 mph - N/A Thunderstorm Overcast
1:35 PM 86.9 °F 95.4 °F 74.3 °F 66% 30.08 in 10.0 mi West 11.5 mph - N/A   Scattered Clouds
1:55 PM 86.2 °F 93.0 °F 72.9 °F 64% 30.07 in 10.0 mi West 11.5 mph - N/A Thunderstorm Thunderstorm
2:15 PM 80.6 °F 85.4 °F 73.6 °F 79% 30.08 in 10.0 mi SSW 11.5 mph - N/A Thunderstorm Thunderstorm
2:35 PM 75.4 °F - 72.0 °F 89% 30.08 in 10.0 mi South 10.4 mph - N/A Rain , Thunderstorm Heavy Thunderstorms and Rain
2:55 PM 73.6 °F - 71.4 °F 93% 30.08 in 7.0 mi ESE 3.5 mph - 0.04 in Rain , Thunderstorm Heavy Thunderstorms and Rain
3:15 PM 72.9 °F - 70.0 °F 91% 30.07 in 10.0 mi East 8.1 mph - 0.01 in Rain , Thunderstorm Light Thunderstorms and Rain
3:35 PM 73.2 °F - 71.1 °F 93% 30.06 in 10.0 mi South 4.6 mph - 0.01 in Thunderstorm Thunderstorm
3:55 PM 73.6 °F - 71.2 °F 92% 30.07 in 5.0 mi NNE 3.5 mph - 0.01 in Thunderstorm Scattered Clouds
4:15 PM 73.6 °F - 71.8 °F 94% 30.06 in 10.0 mi Calm Calm - N/A Rain , Thunderstorm Light Thunderstorms and Rain
4:35 PM 73.9 °F - 72.7 °F 96% 30.04 in 10.0 mi Calm Calm - 0.01 in Rain Light Rain
4:55 PM 74.3 °F - 73.0 °F 96% 30.02 in 10.0 mi Calm Calm - 0.02 in Rain Light Rain
5:15 PM 75.0 °F - 73.8 °F 96% 30.03 in 10.0 mi East 4.6 mph - N/A Rain Light Rain
5:35 PM 76.6 °F - 73.8 °F 91% 30.02 in 10.0 mi WSW 3.5 mph - N/A   Clear
5:55 PM 77.9 °F - 75.4 °F 92% 30.05 in 10.0 mi ENE 6.9 mph - N/A   Clear
6:15 PM 77.0 °F - 75.2 °F 94% 30.06 in 10.0 mi SSE 4.6 mph - N/A   Clear
6:35 PM 76.8 °F - 73.8 °F 90% 30.05 in 7.0 mi SE 4.6 mph - N/A   Clear
6:55 PM 76.6 °F - 70.3 °F 81% 30.09 in 10.0 mi SE 13.8 mph 25.3 mph N/A   Scattered Clouds
7:15 PM 75.4 °F - 69.3 °F 81% 30.10 in 10.0 mi SSE 11.5 mph 19.6 mph N/A   Mostly Cloudy
7:35 PM 75.2 °F - 68.0 °F 78% 30.10 in 10.0 mi ESE 4.6 mph - N/A   Scattered Clouds
7:55 PM 73.6 °F - 67.1 °F 80% 30.09 in 10.0 mi ESE 6.9 mph - N/A   Clear
8:15 PM 72.9 °F - 67.1 °F 82% 30.07 in 10.0 mi ESE 5.8 mph - N/A   Scattered Clouds
8:35 PM 72.3 °F - 67.3 °F 84% 30.05 in - SE 3.5 mph - N/A   Scattered Clouds
8:55 PM 72.0 °F - 67.3 °F 85% 30.05 in 10.0 mi Calm Calm - N/A   Clear
9:35 PM 70.7 °F - 67.8 °F 91% 30.03 in 10.0 mi NE 3.5 mph - N/A   Clear
9:55 PM 70.7 °F - 67.8 °F 91% 30.04 in 10.0 mi Calm Calm - N/A   Clear
10:15 PM 69.4 °F - 67.6 °F 94% 30.05 in 10.0 mi Calm Calm - N/A   Clear
10:35 PM 68.7 °F - 67.8 °F 97% 30.06 in 10.0 mi NNE 3.5 mph - N/A   Clear
10:55 PM 69.1 °F - 67.6 °F 95% 30.07 in 10.0 mi Calm Calm - N/A   Clear
11:15 PM 69.8 °F - 68.0 °F 94% 30.08 in 10.0 mi ENE 4.6 mph - N/A   Clear
11:35 PM 69.8 °F - 67.6 °F 93% 30.07 in 10.0 mi East 3.5 mph - N/A   Clear
11:55 PM 69.1 °F - 67.5 °F 95% 30.07 in 10.0 mi Calm Calm - N/A   Clear